Terminal Aerodrome Forecast
Issued by NWS

Home | Current Version | Previous Version | Text Only | Print | Product List | Glossary On
Versions: 1 2 3 4 5 6 7 8 9 10 11 12 13 14
745
FTUS43 KEAX 130520
TAFMKC
TAF
KMKC 130520Z 1306/1406 04009KT P6SM BKN120
     FM131400 10011KT P6SM OVC060=

USA.gov is the U.S. government's official web portal to all federal, state and local government web resources and services.